Date String (YYYY-MM-DD hh:mm:ss) UTC,Instrument flags,absolute air pressure of the measurement (hPa),sample flow rate (lpm),inlet stack bypass flow (lpm),air temperature of the measurement (°C),ambient temperature measured by the external sensor (°C),aerosol sample conditioner tube jacket temperature (°C),OPC LED temperature (°C),internal box temperature (°C),relative humidity of the measurement (%),span deviation,mass concentration of particles derived from Lorenz-Mie calculation of OPC scattering (μg/m³),mass concentration of particles derived from Lorenz-Mie calculation of OPC scattering (μg/m³),mass concentration of particles derived from Lorenz-Mie calculation of OPC scattering (μg/m³)
DateTimeUTC,F1_M11,P_M11,Q1_M11,Q2_M11,T1_M11,T2_M11,T3_M11,T4_M11,T5_M11,U1_M11,ZSPAN_M11,X0_M11,X2_M11,X1_M11
2024-01-01 02:00:00,SystemResetWarning,0832.2,5.00,000.00,024.6,023.5,000.0,032.9,025.9,12.2,0000.0,0011.01,0005.26,0004.76
2024-01-01 02:01:00,SystemResetWarning,0832.1,5.00,000.00,024.6,023.5,000.0,032.9,025.9,12.2,0000.0,0011.61,0005.22,0004.74
2024-01-01 02:02:00,SystemResetWarning,0832.3,5.00,000.00,024.5,023.5,000.0,032.9,025.9,12.2,0000.0,0011.91,0005.20,0004.73
2024-01-01 02:03:00,SystemResetWarning,0832.4,5.00,000.00,024.5,023.5,000.0,032.9,025.9,12.2,0000.0,0012.21,0005.22,0004.76
2024-01-01 02:04:00,SystemResetWarning,0832.3,5.00,000.00,024.5,023.4,000.0,032.9,025.9,12.2,0000.0,0012.79,0005.23,0004.78
2024-01-01 02:05:00,SystemResetWarning,0832.4,5.00,000.00,024.5,023.4,000.0,032.9,025.9,12.2,0000.0,0013.23,0005.25,0004.80
2024-01-01 02:06:00,SystemResetWarning,0832.1,5.00,000.00,024.5,023.4,000.0,032.9,025.9,12.2,0000.0,0013.04,0005.23,0004.81
2024-01-01 02:07:00,SystemResetWarning,0832.2,5.01,000.00,024.5,023.4,000.0,032.9,025.8,12.3,0000.0,0011.93,0005.21,0004.80
2024-01-01 02:08:00,SystemResetWarning,0832.0,4.99,000.00,024.5,023.3,000.0,032.8,025.8,12.3,0000.0,0011.68,0005.23,0004.81
2024-01-01 02:09:00,SystemResetWarning,0831.8,5.00,000.00,024.5,023.3,000.0,032.8,025.7,12.3,0000.0,0011.80,0005.25,0004.81
2024-01-01 02:10:00,SystemResetWarning,0831.8,5.00,000.00,024.5,023.3,000.0,032.8,025.7,12.3,0000.0,0012.05,0005.29,0004.81
2024-01-01 02:11:00,SystemResetWarning,0831.7,5.00,000.00,024.5,023.2,000.0,032.8,025.7,12.4,0000.0,0012.39,0005.33,0004.80
2024-01-01 02:12:00,SystemResetWarning,0831.7,5.00,000.00,024.4,023.2,000.0,032.8,025.7,12.4,0000.0,0012.19,0005.36,0004.80
2024-01-01 02:13:00,SystemResetWarning,0831.8,5.00,000.00,024.4,023.2,000.0,032.8,025.7,12.5,0000.0,0011.67,0005.39,0004.82
2024-01-01 02:14:00,SystemResetWarning,0831.8,5.00,000.00,024.4,023.2,000.0,032.8,025.7,12.5,0000.0,0011.06,0005.37,0004.81
2024-01-01 02:15:00,SystemResetWarning,0831.7,4.99,000.00,024.4,023.1,000.0,032.8,025.7,12.5,0000.0,0010.29,0005.37,0004.80
2024-01-01 02:16:00,SystemResetWarning,0831.8,5.00,000.00,024.4,023.1,000.0,032.8,025.6,12.5,0000.0,0009.78,0005.37,0004.80
2024-01-01 02:17:00,SystemResetWarning,0831.7,5.00,000.00,024.4,023.1,000.0,032.7,025.6,12.5,0000.0,0009.73,0005.42,0004.82
2024-01-01 02:18:00,SystemResetWarning,0831.8,5.00,000.00,024.4,023.1,000.0,032.7,025.6,12.5,0000.0,0009.82,0005.45,0004.84
2024-01-01 02:19:00,SystemResetWarning,0832.1,5.01,000.00,024.3,023.0,000.0,032.7,025.6,12.5,0000.0,0009.89,0005.47,0004.85
2024-01-01 02:20:00,SystemResetWarning,0832.2,5.00,000.00,024.3,023.0,000.0,032.7,025.5,12.5,0000.0,0011.21,0005.50,0004.88
2024-01-01 02:21:00,SystemResetWarning,0832.2,5.00,000.00,024.3,023.0,000.0,032.7,025.5,12.6,0000.0,0011.37,0005.51,0004.91
2024-01-01 02:22:00,SystemResetWarning,0832.1,5.00,000.00,024.3,023.0,000.0,032.7,025.5,12.6,0000.0,0011.22,0005.53,0004.94
2024-01-01 02:23:00,SystemResetWarning,0832.1,5.00,000.00,024.3,023.0,000.0,032.7,025.5,12.6,0000.0,0010.88,0005.56,0004.98
2024-01-01 02:24:00,SystemResetWarning,0831.9,5.00,000.00,024.3,023.0,000.0,032.7,025.5,12.6,0000.0,0011.33,0005.56,0005.00
2024-01-01 02:25:00,SystemResetWarning,0832.1,5.00,000.00,024.3,023.0,000.0,032.6,025.5,12.6,0000.0,0011.93,0005.60,0005.03
2024-01-01 02:26:00,SystemResetWarning,0831.8,5.00,000.00,024.3,023.0,000.0,032.6,025.5,12.6,0000.0,0011.97,0005.65,0005.08
2024-01-01 02:27:00,SystemResetWarning,0831.9,5.00,000.00,024.2,022.9,000.0,032.6,025.5,12.6,0000.3,0011.93,0005.69,0005.11
2024-01-01 02:28:00,SystemResetWarning,0831.8,5.01,000.00,024.2,022.9,000.0,032.6,025.5,12.6,0003.2,0012.23,0005.75,0005.15
2024-01-01 02:29:00,SystemResetWarning,0831.9,5.00,000.00,024.2,022.9,000.0,032.6,025.5,12.6,0003.1,0012.90,0005.83,0005.18
2024-01-01 02:30:00,SystemResetWarning,0832.1,5.00,000.00,024.2,022.9,000.0,032.6,025.5,12.6,0000.0,0013.06,0005.91,0005.21
2024-01-01 02:31:00,SystemResetWarning,0832.0,5.00,000.00,024.2,022.9,000.0,032.6,025.5,12.7,0000.0,0012.15,0005.94,0005.22
2024-01-01 02:32:00,SystemResetWarning,0831.9,4.99,000.00,024.2,022.8,000.0,032.6,025.5,12.7,0000.0,0011.78,0005.98,0005.24
2024-01-01 02:33:00,SystemResetWarning,0832.0,5.00,000.00,024.2,022.8,000.0,032.6,025.5,12.7,0000.0,0011.96,0006.00,0005.26
2024-01-01 02:34:00,SystemResetWarning,0831.8,5.01,000.00,024.1,022.8,000.0,032.5,025.4,12.7,0000.0,0012.13,0006.02,0005.27
2024-01-01 02:35:00,SystemResetWarning,0831.9,5.01,000.00,024.1,022.8,000.0,032.5,025.4,12.7,0000.0,0011.47,0006.03,0005.29
2024-01-01 02:36:00,SystemResetWarning,0832.3,5.01,000.00,024.1,022.8,000.0,032.5,025.4,12.7,0000.0,0010.96,0006.04,0005.30
2024-01-01 02:37:00,SystemResetWarning,0832.3,5.00,000.00,024.1,022.8,000.0,032.5,025.4,12.8,0000.0,0011.10,0006.03,0005.28
2024-01-01 02:38:00,SystemResetWarning,0832.2,5.00,000.00,024.1,022.8,000.0,032.5,025.4,12.8,0000.0,0011.98,0006.05,0005.29
2024-01-01 02:39:00,SystemResetWarning,0832.3,4.99,000.00,024.1,022.7,000.0,032.5,025.4,12.8,0000.0,0011.86,0006.03,0005.29
2024-01-01 02:40:00,SystemResetWarning,0832.2,5.00,000.00,024.0,022.7,000.0,032.4,025.4,12.8,0000.0,0011.24,0006.00,0005.31
2024-01-01 02:41:00,SystemResetWarning,0832.2,4.99,000.00,024.0,022.7,000.0,032.4,025.3,12.8,0000.0,0011.73,0005.97,0005.31
2024-01-01 02:42:00,SystemResetWarning,0832.0,5.00,000.00,024.0,022.7,000.0,032.4,025.3,12.8,0000.0,0011.77,0005.96,0005.31
2024-01-01 02:43:00,SystemResetWarning,0831.9,5.00,000.00,024.0,022.7,000.0,032.4,025.3,12.7,0000.0,0012.56,0005.95,0005.31
2024-01-01 02:44:00,SystemResetWarning,0831.7,5.01,000.00,024.0,022.7,000.0,032.4,025.3,12.7,0000.0,0012.58,0005.94,0005.31
2024-01-01 02:45:00,SystemResetWarning,0831.8,5.01,000.00,024.0,022.6,000.0,032.4,025.3,12.6,0000.0,0012.58,0005.94,0005.31
2024-01-01 02:46:00,SystemResetWarning,0831.8,5.00,000.00,024.0,022.6,000.0,032.4,025.3,12.7,0000.0,0012.50,0005.92,0005.31
2024-01-01 02:47:00,SystemResetWarning,0832.2,5.00,000.00,024.0,022.6,000.0,032.4,025.2,12.7,0000.0,0012.73,0005.91,0005.31
2024-01-01 02:48:00,SystemResetWarning,0832.2,5.00,000.00,023.9,022.6,000.0,032.3,025.2,12.7,0000.0,0012.92,0005.91,0005.30
2024-01-01 02:49:00,SystemResetWarning,0832.1,5.00,000.00,023.9,022.6,000.0,032.3,025.2,12.8,0000.0,0012.48,0005.90,0005.30
2024-01-01 02:50:00,SystemResetWarning,0832.2,4.99,000.00,023.9,022.6,000.0,032.3,025.2,12.8,0000.0,0013.77,0005.87,0005.30
2024-01-01 02:51:00,SystemResetWarning,0832.2,5.00,000.00,023.9,022.5,000.0,032.3,025.2,12.8,0000.0,0013.94,0005.86,0005.29
2024-01-01 02:52:00,SystemResetWarning,0832.3,5.00,000.00,023.9,022.5,000.0,032.3,025.1,12.9,0000.0,0014.29,0005.90,0005.28
2024-01-01 02:53:00,SystemResetWarning,0832.0,5.00,000.00,023.9,022.5,000.0,032.3,025.1,12.9,0000.0,0014.33,0005.91,0005.27
2024-01-01 02:54:00,SystemResetWarning,0831.8,5.00,000.00,023.8,022.5,000.0,032.3,025.1,12.9,0000.0,0013.96,0005.90,0005.27
2024-01-01 02:55:00,SystemResetWarning,0831.8,5.00,000.00,023.8,022.5,000.0,032.2,025.1,12.9,0000.0,0013.58,0005.91,0005.27
2024-01-01 02:56:00,SystemResetWarning,0831.8,5.00,000.00,023.8,022.4,000.0,032.2,025.1,12.9,0000.0,0013.44,0005.94,0005.30
2024-01-01 02:57:00,SystemResetWarning,0831.8,5.00,000.00,023.8,022.4,000.0,032.2,025.1,12.9,0000.0,0013.58,0006.05,0005.36
2024-01-01 02:58:00,SystemResetWarning,0831.8,5.01,000.00,023.8,022.4,000.0,032.2,025.1,13.0,0000.0,0013.48,0006.10,0005.39
2024-01-01 02:59:00,SystemResetWarning,0831.8,5.00,000.00,023.8,022.4,000.0,032.2,025.1,13.0,0000.0,0013.93,0006.13,0005.42
